Location: Elstree
(51.6403°N, 0.2969°W)
Time: 19:10:01
(UTC+00:00)

Cosmos 2360 Rocket - Pass Details

Date: 03 March 2021
Orbit: 832 x 846 km, 71.0° (Epoch: 17 April)

Event Time Altitude Azimuth Distance (km) Brightness Sun altitude
Rises 20:21:33 0° 227° (SW) 3,383 5.7 -24.6°
Reaches altitude 10° 20:24:04 10° 233° (SW) 2,454 5.0 -25.0°
Maximum altitude 20:29:31 50° 308° (NW) 1,071 3.0 -25.8°
Drops below altitude 10° 20:35:03 10° 24° (NNE) 2,476 4.6 -26.5°
Sets 20:37:36 0° 30° (NNE) 3,416 5.3 -26.9°
